Location: Brunembert
(50.7122°N, 1.8935°E)
Time: 04:59:18
(UTC+00:00)

Cosmos 1470 Rocket - Pass Details

Date: 22 April 2021
Orbit: 604 x 633 km, 82.5° (Epoch: 06 May)

Event Time Altitude Azimuth Distance (km) Brightness Sun altitude
Rises 23:26:19 0° 348° (NNW) 2,903 8.3 -26.5°
Reaches altitude 10° 23:28:33 10° 346° (NNW) 1,997 7.2 -26.6°
Enters shadow 23:32:15 58° 319° (NW) 729 4.0 -26.6°
